Weather History for KDSM - May, 2014

Change the Weather History Date:

Tuesday, May 6, 2014

  Actual Average Record
Temperature  
Mean Temperature 63 °F 59 °F  
Max Temperature 77 °F 69 °F 95 °F (1934)
Min Temperature 49 °F 49 °F 28 °F (1947)
Degree Days  
Heating Degree Days 2 7  
Month to date heating degree days 49 45  
Since 1 July heating degree days 6699 6084  
Cooling Degree Days 0 1  
Month to date cooling degree days 0 6  
Year to date cooling degree days 12 20  
Growing Degree Days 12 (Base 50)    
Moisture  
Dew Point 44 °F    
Average Humidity 48    
Maximum Humidity 61    
Minimum Humidity 35    
Precipitation  
Precipitation 0.00 in 0.15 in 1.58 in (2007)
Month to date precipitation T 0.92  
Year to date precipitation 7.75 9.36  
Snow  
Snow 0.00 in 0.00 in T in (1991)
Month to date snowfall 0.0 0.0  
Since 1 July snowfall 48.3 35.3  
Snow Depth 0.00 in    
Sea Level Pressure  
Sea Level Pressure 29.71 in    
Wind  
Wind Speed 14 mph (ESE)    
Max Wind Speed 22 mph    
Max Gust Speed 30 mph    
Visibility 10 miles    
Events      
T = Trace of Precipitation, MM = Missing Value Source: NWS Daily Summary

Daily Weather History Graph

Daily Weather History Graph

Search for Another Location

Airport or City:

Trip Planner

Search our weather history database for the weather conditions in past years. The results will help you decide how hot, cold, wet, or windy it might be!

Date:

Astronomy

May. 06, 2014 Rise Set
Actual Time 6:05 AM CDT 8:17 PM CDT
Civil Twilight 5:34 AM CDT 8:48 PM CDT
Nautical Twilight 4:56 AM CDT 9:26 PM CDT
Astronomical Twilight 4:15 AM CDT 10:08 PM CDT
Moon 12:22 PM CDT (5/6) 1:36 AM CDT (5/6)
Length of Visible Light 15h 14m
Length of Day
14h 12m
Waxing Crescent, 46% of the Moon is Illuminated
May 6
Waxing Crescent
May 6
First Quarter
May 14
Full
May 21
Last Quarter
May 28
New

Hourly Weather History & Observations

Time (CDT) Temp. Dew Point Humidity Pressure Visibility Wind Dir Wind Speed Gust Speed Precip Events Conditions
12:54 AM 55.9 °F 36.0 °F 47% 29.86 in 10.0 mi ESE 12.7 mph - N/A   Partly Cloudy
1:54 AM 54.0 °F 35.1 °F 49% 29.85 in 10.0 mi East 11.5 mph 19.6 mph N/A   Scattered Clouds
6:54 AM 48.9 °F 35.1 °F 59% 29.82 in 10.0 mi East 11.5 mph 20.7 mph N/A   Mostly Cloudy
7:54 AM 50.0 °F 36.0 °F 59% 29.83 in 10.0 mi ESE 15.0 mph 23.0 mph N/A   Mostly Cloudy
9:54 AM 57.0 °F 39.0 °F 51% 29.81 in 10.0 mi ESE 16.1 mph 23.0 mph N/A   Overcast
10:54 AM 61.0 °F 37.9 °F 42% 29.77 in 10.0 mi East 13.8 mph 23.0 mph N/A   Mostly Cloudy
11:54 AM 66.0 °F 43.0 °F 43% 29.76 in 10.0 mi ESE 17.3 mph 23.0 mph N/A   Mostly Cloudy
12:54 PM 66.9 °F 43.0 °F 42% 29.74 in 10.0 mi East 13.8 mph 27.6 mph N/A   Overcast
1:54 PM 71.1 °F 45.0 °F 39% 29.71 in 10.0 mi East 17.3 mph 27.6 mph N/A   Overcast
2:54 PM 73.0 °F 45.0 °F 37% 29.68 in 10.0 mi ESE 15.0 mph 28.8 mph N/A   Overcast
3:54 PM 73.9 °F 46.9 °F 38% 29.64 in 10.0 mi ESE 16.1 mph 29.9 mph N/A   Overcast
4:54 PM 75.9 °F 48.9 °F 38% 29.63 in 10.0 mi SE 17.3 mph 25.3 mph N/A   Overcast
5:23 PM 75.9 °F 50.0 °F 40% 29.63 in 9.0 mi SE 15.0 mph 27.6 mph N/A   Overcast
5:54 PM 77.0 °F 51.1 °F 40% 29.61 in 10.0 mi ESE 11.5 mph 18.4 mph N/A   Overcast
6:54 PM 75.9 °F 52.0 °F 43% 29.60 in 10.0 mi ESE 11.5 mph - N/A   Overcast
7:54 PM 75.9 °F 52.0 °F 43% 29.61 in 10.0 mi ESE 9.2 mph - N/A   Mostly Cloudy
8:54 PM 73.9 °F 52.0 °F 46% 29.62 in 10.0 mi East 6.9 mph - N/A   Scattered Clouds
9:54 PM 71.1 °F 48.9 °F 45% 29.62 in 10.0 mi East 11.5 mph - N/A   Mostly Cloudy
10:54 PM 70.0 °F 48.0 °F 46% 29.62 in 10.0 mi East 15.0 mph - N/A   Partly Cloudy
11:54 PM 68.0 °F 46.0 °F 45% 29.61 in 10.0 mi East 13.8 mph 23.0 mph N/A   Clear